Weather History for KITR - September, 2013

Change the Weather History Date:

Thursday, September 26, 2013

  Actual Average Record
Temperature  
Mean Temperature 63 °F 59 °F  
Max Temperature 78 °F 74 °F 91 °F (2008)
Min Temperature 48 °F 44 °F 21 °F (1942)
Degree Days  
Heating Degree Days 2    
Growing Degree Days 13 (Base 50)    
Moisture  
Dew Point 46 °F    
Average Humidity 53    
Maximum Humidity 77    
Minimum Humidity 33    
Precipitation  
Precipitation 0.00 in 0.03 in 0.35 in (1918)
Month to date precipitation 5.30 0.99  
Year to date precipitation 15.75 15.14  
Sea Level Pressure  
Sea Level Pressure 29.56 in    
Wind  
Wind Speed 9 mph (SE)    
Max Wind Speed 17 mph    
Max Gust Speed 22 mph    
Visibility 10 miles    
Events      
T = Trace of Precipitation, MM = Missing Value Source: NWS Daily Summary

Daily Weather History Graph

Daily Weather History Graph

Search for Another Location

Airport or City:

Trip Planner

Search our weather history database for the weather conditions in past years. The results will help you decide how hot, cold, wet, or windy it might be!

Date:

Astronomy

Sep. 26, 2013 Rise Set
Actual Time 6:40 AM MDT 6:39 PM MDT
Civil Twilight 6:14 AM MDT 7:05 PM MDT
Nautical Twilight 5:42 AM MDT 7:36 PM MDT
Astronomical Twilight 5:11 AM MDT 8:08 PM MDT
Moon 11:41 PM MDT (9/26) 1:32 PM MDT (9/26)
Length of Visible Light 12h 51m
Length of Day
11h 58m
Waning Gibbous, 54% of the Moon is Illuminated
Sep 26
Waning Gibbous
Sep 26
Last Quarter
Oct 4
New
Oct 11
First Quarter
Oct 18
Full

Hourly Weather History & Observations

Time (MDT) Temp. Dew Point Humidity Pressure Visibility Wind Dir Wind Speed Gust Speed Precip Events Conditions
12:53 AM 61.0 °F 44.1 °F 54% 29.45 in 10.0 mi South 11.5 mph - N/A   Clear
1:53 AM 55.0 °F 45.0 °F 69% 29.47 in 10.0 mi South 10.4 mph - N/A   Clear
2:53 AM 55.0 °F 44.1 °F 67% 29.46 in 10.0 mi SSW 6.9 mph - N/A   Clear
3:53 AM 57.9 °F 45.0 °F 62% 29.45 in 10.0 mi SSW 10.4 mph - N/A   Clear
4:53 AM 57.0 °F 45.0 °F 64% 29.50 in 10.0 mi North 11.5 mph 17.3 mph N/A   Clear
5:53 AM 52.0 °F 42.1 °F 69% 29.55 in 10.0 mi North 6.9 mph - N/A   Clear
6:53 AM 48.0 °F 41.0 °F 77% 29.60 in 10.0 mi NNW 5.8 mph - N/A   Clear
7:53 AM 54.0 °F 44.1 °F 69% 29.61 in 10.0 mi NNW 11.5 mph - N/A   Clear
8:53 AM 57.9 °F 45.0 °F 62% 29.62 in 10.0 mi NNW 13.8 mph 21.9 mph N/A   Clear
9:53 AM 63.0 °F 46.9 °F 56% 29.62 in 10.0 mi NNE 11.5 mph - N/A   Clear
10:53 AM 64.9 °F 46.9 °F 52% 29.62 in 10.0 mi North 9.2 mph - N/A   Clear
11:53 AM 68.0 °F 48.0 °F 49% 29.61 in 10.0 mi NNE 8.1 mph - N/A   Clear
12:53 PM 71.1 °F 48.0 °F 44% 29.62 in 10.0 mi Calm Calm - N/A   Clear
1:53 PM 73.9 °F 46.9 °F 38% 29.62 in 10.0 mi SW 3.5 mph - N/A   Clear
2:53 PM 75.9 °F 46.0 °F 35% 29.60 in 10.0 mi South 6.9 mph - N/A   Clear
3:53 PM 78.1 °F 46.9 °F 33% 29.57 in 10.0 mi South 5.8 mph - N/A   Clear
4:53 PM 77.0 °F 48.0 °F 36% 29.56 in 10.0 mi East 4.6 mph - N/A   Clear
5:53 PM 75.0 °F 48.9 °F 40% 29.57 in 10.0 mi East 5.8 mph - N/A   Clear
6:53 PM 66.0 °F 46.9 °F 50% 29.59 in 10.0 mi East 5.8 mph - N/A   Clear
7:53 PM 61.0 °F 46.9 °F 60% 29.60 in 10.0 mi East 6.9 mph - N/A   Clear
8:53 PM 60.1 °F 46.9 °F 62% 29.58 in 10.0 mi SE 8.1 mph - N/A   Clear
9:53 PM 69.1 °F 44.1 °F 40% 29.55 in 10.0 mi South 13.8 mph - N/A   Clear
10:53 PM 68.0 °F 45.0 °F 43% 29.55 in 10.0 mi South 12.7 mph - N/A   Clear
11:53 PM 71.1 °F 45.0 °F 39% 29.55 in 10.0 mi SSW 17.3 mph - N/A   Clear